[[{"header":{"parameterUnit":"m.s-1","parameterCategory":1,"la1":30.2991,"la2":30.254,"lo1":-89.0895,"lo2":-89.0444,"dy":0.0017,"dx":0.0017,"nx":28,"ny":28,"refTime":"2025-12-16T03:00:00:Z","depth":0,"parameterNumber":2,"parameterNumberName":"U-component_of_WINDS"},"data":[0,0,0,0,0,0,0,0,0,0,0,0,0,0,0,0,0,0,0,0,0,0,0,0,0,0,0,0,0,0,0,0,0,0,0,0,0,0,0,0,0,0,0,0,0,0,0,0,0,0,0,0,0,0,0,0,0,0,-2.283,-2.2831,0,-2.2888,-2.2889,-2.2889,-2.2804,-2.2801,-2.2798,-2.2795,-2.2856,-2.286,-2.2865,0,0,0,0,0,0,0,0,0,0,0,0,0,-2.2646,-2.265,-2.283,-2.2831,-2.2832,-2.2888,-2.2889,-2.289,-2.2804,-2.28,-2.2797,-2.2793,-2.2854,-2.286,-2.2865,0,0,0,0,0,0,0,0,0,0,0,0,0,-2.2718,-2.2651,-2.283,-2.2796,-2.2793,-2.2888,-2.2889,-2.289,-2.2805,-2.28,-2.2796,-2.2792,-2.2853,-2.2859,-2.2866,-2.2997,0,0,-2.2886,-2.2889,0,0,0,0,0,0,0,0,-2.2714,-2.2724,-2.28,-2.2798,-2.2796,-2.2834,-2.2846,-2.2926,-2.2806,-2.2801,-2.2795,-2.2789,-2.2852,-2.2859,-2.288,-2.3,-2.3003,-2.2887,-2.2891,-2.2893,-2.2895,0,0,0,0,0,0,0,-2.2709,-2.2721,-2.2853,-2.2801,-2.2799,-2.2778,-2.2783,-2.2861,-2.2851,-2.2801,-2.2795,-2.2802,-2.285,-2.2873,-2.288,-2.3004,-2.2886,-2.2892,-2.2896,-2.2899,-2.3233,-2.3238,0,0,0,0,0,0,-2.2708,-2.2718,-2.2851,-2.2855,-2.2743,-2.2785,-2.279,-2.2826,-2.285,-2.2849,-2.2806,-2.2798,-2.2864,-2.2873,-2.2882,-2.3037,-2.2893,-2.29,-2.2903,-2.3229,-2.3234,-2.324,0,0,0,0,0,0,-2.2704,-2.2721,-2.2849,-2.2785,-2.2799,-2.2793,-2.2834,-2.283,-2.2853,-2.2854,-2.2852,-2.2832,-2.2861,-2.2873,-2.2969,-2.3038,-2.2903,-2.2909,-2.3223,-2.323,-2.3237,-2.3348,0,0,0,0,0,0,-2.2699,-2.272,-2.277,-2.2786,-2.2803,-2.2935,-2.2838,-2.2834,-2.2864,-2.2854,-2.2877,-2.2877,-2.2858,-2.2959,-2.2975,-2.3044,-2.2914,-2.3217,-2.3226,-2.3235,-2.3338,-2.3358,-2.3375,0,0,0,0,0,-2.2693,-2.2799,-2.2773,-2.2789,-2.2865,-2.2939,-2.2948,-2.2924,-2.287,-2.292,-2.2921,-2.2876,-2.3028,-2.297,-2.2987,-2.3059,-2.3212,-2.3223,-2.3234,-2.3329,-2.3354,-2.3374,0,0,0,0,0,0,-2.2792,-2.2801,-2.2771,-2.2886,-2.2912,-2.2924,-2.2987,-2.2951,-2.2994,-2.2983,-2.2951,-2.2957,-2.306,-2.3069,-2.3005,-2.3187,-2.3111,-2.3126,-2.3177,-2.3201,-2.3219,-2.3214,-2.2919,0,0,0,0,0,-2.2826,-2.2885,-2.289,-2.2991,-2.3005,-2.2994,-2.3025,-2.3004,-2.303,-2.3041,-2.3049,-2.3076,-2.3129,-2.3166,-2.3215,-2.3339,-2.3342,-2.3397,-2.3415,-2.343,-2.3444,-2.3509,-2.3533,-2.3276,-2.3276,-2.3276,0,0,-2.2899,-2.2912,-2.2951,-2.3011,-2.3028,-2.309,-2.3004,-2.3073,-2.3118,-2.3052,-2.3142,-2.3149,-2.3177,-2.3288,-2.3336,-2.3298,-2.3515,-2.3444,-2.3457,-2.3462,-2.3522,-2.3547,-2.3568,-2.3283,-2.3282,-2.3281,0,0,-2.3063,-2.3079,-2.3164,-2.3183,-2.3211,-2.3202,-2.3223,-2.324,-2.3242,-2.3332,-2.3283,-2.3337,-2.343,-2.3452,-2.3475,-2.3646,-2.3607,-2.3663,-2.376,-2.3824,-2.3844,-2.3862,-2.3922,-2.3944,-2.3677,-2.3677,-2.3677,0,-2.3151,-2.3241,-2.3212,-2.3284,-2.3312,-2.3253,-2.3339,-2.3359,-2.3402,-2.3423,-2.3379,-2.3494,-2.3509,-2.3623,-2.3664,-2.3686,-2.3708,-2.366,-2.3844,-2.3861,-2.3877,-2.3934,-2.3957,-2.3684,-2.3683,-2.3682,-2.3682,0,-2.3346,-2.341,-2.3475,-2.3517,-2.3552,-2.363,-2.3613,-2.3652,-2.3628,-2.3624,-2.3717,-2.3733,-2.3784,-2.3809,-2.3787,-2.392,-2.3895,-2.3848,-2.3771,-2.3909,-2.3962,-2.3984,-2.3693,-2.3691,-2.3689,-2.3687,0,0,-2.3575,-2.3598,-2.3623,-2.364,-2.3666,-2.3715,-2.379,-2.3839,-2.3873,-2.3905,-2.3967,-2.4046,-2.4003,-2.4029,-2.4009,-2.4065,-2.4198,-2.4011,-2.4011,-2.4044,-2.4345,-2.4379,-2.4405,-2.4172,-2.4176,-2.4179,-2.4342,0,-2.3738,-2.3867,-2.3843,-2.397,-2.4028,-2.3973,-2.4038,-2.4061,-2.406,-2.4109,-2.4107,-2.4163,-2.4102,-2.4117,-2.417,-2.4171,-2.4258,-2.4159,-2.423,-2.4233,-2.4224,-2.4433,-2.447,-2.4622,-2.4363,-2.4366,-2.4369,0,-2.3945,-2.3983,-2.4115,-2.413,-2.4154,-2.4213,-2.4255,-2.4303,-2.4328,-2.4322,-2.4352,-2.432,-2.4395,-2.4317,-2.442,-2.4353,-2.4381,-2.4385,-2.4391,-2.4396,-2.4309,-2.4443,-2.4671,-2.4693,-2.4401,-2.4399,-2.4396,0,-2.4097,-2.4181,-2.4271,-2.4288,-2.4308,-2.4351,-2.4362,-2.4382,-2.4413,-2.445,-2.4469,-2.4515,-2.4541,-2.4577,-2.4559,-2.4503,-2.4665,-2.4585,-2.4662,-2.4663,-2.4698,-2.4696,-2.4932,-2.4717,-2.4717,-2.4717,-2.4716,0,-2.4281,-2.4364,-2.4339,-2.4394,-2.4485,-2.4457,-2.4547,-2.4552,-2.457,-2.4625,-2.4581,-2.4633,-2.4606,-2.4657,-2.4643,-2.473,-2.4742,-2.4739,-2.4735,-2.4743,-2.4743,-2.476,-2.4749,-2.4723,-2.4721,-2.472,-2.4719,0,-2.4466,-2.4453,-2.4547,-2.4558,-2.4563,-2.4629,-2.4639,-2.469,-2.4685,-2.4755,-2.4769,-2.4761,-2.4818,-2.4804,-2.4866,-2.4857,-2.4966,-2.4948,-2.4957,-2.4953,-2.503,-2.5023,-2.5285,-2.5318,-2.5083,-2.5085,-2.5087,0,-2.4584,-2.4646,-2.4664,-2.4697,-2.471,-2.4765,-2.4795,-2.477,-2.4803,-2.4836,-2.4883,-2.4936,-2.4977,-2.5071,-2.507,-2.5118,-2.51,-2.5189,-2.5107,-2.5113,-2.51,-2.5097,-2.5102,-2.5205,-2.5208,-2.521,-2.5212,0,-2.4794,-2.4784,-2.483,-2.4873,-2.4911,-2.4944,-2.4973,-2.5003,-2.4979,-2.5019,-2.5076,-2.5108,-2.5171,-2.5224,-2.5267,-2.5278,-2.5242,-2.5238,-2.5258,-2.5267,-2.5269,-2.5267,-2.5001,-2.5232,-2.523,-2.5228,-2.5227,-2.5226,-2.4949,-2.5001,-2.5021,-2.5073,-2.5092,-2.512,-2.5168,-2.5168,-2.5215,-2.5264,-2.5246,-2.5312,-2.5334,-2.5388,-2.5404,-2.5455,-2.5421,-2.5451,-2.5458,-2.5465,-2.5474,-2.5261,-2.5463,-2.5462,-2.5462,-2.5461,-2.5461,0,-2.5156,-2.5166,-2.5214,-2.5255,-2.5296,-2.5257,-2.5287,-2.5324,-2.5381,-2.5405,-2.5446,-2.5511,-2.5562,-2.5565,-2.5613,-2.5653,-2.5637,-2.5666,-2.5663,-2.5665,-2.5502,-2.548,-2.5678,-2.5678,-2.5678,-2.5678,-2.5678,-2.5678,-2.5269,-2.5354,-2.5347,-2.5441,-2.545,-2.5514,-2.5534,-2.5559,-2.5577,-2.5652,-2.5694,-2.5695,-2.5711,-2.5759,-2.5804,-2.5803,-2.5822,-2.5858,-2.5851,-2.5699,-2.5677,-2.5656,-2.5635,-2.5863,-2.5863,-2.601,-2.6011,-2.6012]},{"header":{"parameterUnit":"m.s-1","parameterCategory":1,"la1":30.2991,"la2":30.254,"lo1":-89.0895,"lo2":-89.0444,"dy":0.0017,"dx":0.0017,"nx":28,"ny":28,"refTime":"2025-12-16T03:00:00:Z","depth":0,"parameterNumber":3,"parameterNumberName":"V-component_of_WINDS"},"data":[0,0,0,0,0,0,0,0,0,0,0,0,0,0,0,0,0,0,0,0,0,0,0,0,0,0,0,0,0,0,0,0,0,0,0,0,0,0,0,0,0,0,0,0,0,0,0,0,0,0,0,0,0,0,0,0,0,0,-1.419,-1.419,0,-1.4168,-1.4168,-1.4168,-1.4165,-1.4165,-1.4166,-1.4166,-1.4144,-1.4143,-1.4142,0,0,0,0,0,0,0,0,0,0,0,0,0,-1.4228,-1.4228,-1.419,-1.419,-1.419,-1.4169,-1.4168,-1.4168,-1.4165,-1.4165,-1.4166,-1.4166,-1.4144,-1.4143,-1.4142,0,0,0,0,0,0,0,0,0,0,0,0,0,-1.421,-1.4227,-1.419,-1.4186,-1.4185,-1.4169,-1.4168,-1.4168,-1.4165,-1.4165,-1.4166,-1.4166,-1.4145,-1.4143,-1.4142,-1.4129,0,0,-1.4139,-1.4138,0,0,0,0,0,0,0,0,-1.4211,-1.4208,-1.4187,-1.4186,-1.4185,-1.417,-1.4174,-1.4155,-1.4165,-1.4173,-1.4166,-1.4166,-1.4152,-1.4151,-1.4146,-1.4128,-1.4127,-1.4139,-1.4138,-1.4137,-1.4137,0,0,0,0,0,0,0,-1.4212,-1.4209,-1.4182,-1.4187,-1.4186,-1.4184,-1.4182,-1.417,-1.4161,-1.4172,-1.4172,-1.4169,-1.4152,-1.4147,-1.4145,-1.4126,-1.4139,-1.4138,-1.4137,-1.4136,-1.4093,-1.4092,0,0,0,0,0,0,-1.4214,-1.421,-1.4182,-1.4181,-1.4199,-1.4183,-1.4181,-1.4175,-1.4161,-1.4159,-1.4169,-1.4169,-1.4149,-1.4147,-1.4144,-1.4125,-1.4137,-1.4136,-1.4136,-1.4093,-1.4093,-1.4092,0,0,0,0,0,0,-1.4215,-1.4212,-1.4183,-1.4196,-1.4192,-1.4182,-1.4175,-1.4174,-1.4169,-1.4159,-1.4157,-1.4166,-1.4149,-1.4146,-1.4132,-1.4125,-1.4136,-1.4135,-1.4094,-1.4093,-1.4092,-1.4089,0,0,0,0,0,0,-1.4216,-1.4212,-1.4207,-1.4195,-1.4191,-1.4172,-1.4175,-1.4173,-1.4167,-1.4167,-1.4155,-1.4154,-1.4149,-1.4134,-1.4131,-1.4123,-1.4134,-1.4094,-1.4093,-1.4093,-1.409,-1.4088,-1.4087,0,0,0,0,0,-1.4217,-1.4208,-1.4207,-1.4204,-1.4185,-1.4171,-1.4169,-1.4164,-1.4166,-1.4161,-1.4154,-1.4154,-1.4126,-1.4132,-1.4129,-1.4121,-1.4095,-1.4094,-1.4093,-1.409,-1.4088,-1.4087,0,0,0,0,0,0,-1.4221,-1.4207,-1.4205,-1.4192,-1.4183,-1.4171,-1.4164,-1.4162,-1.4152,-1.4153,-1.4147,-1.4144,-1.413,-1.4124,-1.4131,-1.4106,-1.4111,-1.4109,-1.411,-1.4108,-1.4107,-1.4108,-1.4133,0,0,0,0,0,-1.4219,-1.4209,-1.4198,-1.4187,-1.4182,-1.4174,-1.4168,-1.4164,-1.4154,-1.4151,-1.4143,-1.4133,-1.4122,-1.4115,-1.4104,-1.4089,-1.4085,-1.4082,-1.408,-1.4079,-1.4077,-1.4066,-1.4064,-1.4089,-1.4089,-1.4089,0,0,-1.4218,-1.4209,-1.4203,-1.4187,-1.418,-1.4169,-1.4171,-1.416,-1.4151,-1.4149,-1.4134,-1.4128,-1.4117,-1.4101,-1.4094,-1.4096,-1.4069,-1.4078,-1.4077,-1.4076,-1.4065,-1.4062,-1.406,-1.4088,-1.4088,-1.4088,0,0,-1.4208,-1.4201,-1.419,-1.4182,-1.417,-1.4164,-1.4161,-1.4149,-1.4144,-1.4129,-1.4126,-1.4116,-1.4097,-1.4088,-1.4082,-1.4065,-1.4064,-1.4062,-1.4055,-1.4044,-1.4042,-1.404,-1.4032,-1.4029,-1.4061,-1.4061,-1.4061,0,-1.4207,-1.4191,-1.4185,-1.4173,-1.4165,-1.4161,-1.4149,-1.4142,-1.4127,-1.4121,-1.4124,-1.4098,-1.4091,-1.4071,-1.4067,-1.4062,-1.4058,-1.4063,-1.4043,-1.4041,-1.4039,-1.4031,-1.4028,-1.406,-1.406,-1.406,-1.406,0,-1.4189,-1.4177,-1.417,-1.4154,-1.4146,-1.4134,-1.4125,-1.4117,-1.4113,-1.4107,-1.409,-1.408,-1.4066,-1.4062,-1.4059,-1.4041,-1.4042,-1.4044,-1.4048,-1.4036,-1.4029,-1.4026,-1.406,-1.406,-1.406,-1.406,0,0,-1.4183,-1.4162,-1.4159,-1.415,-1.4135,-1.4126,-1.4113,-1.4098,-1.409,-1.408,-1.4067,-1.405,-1.405,-1.4043,-1.4039,-1.4029,-1.4013,-1.4031,-1.4031,-1.4026,-1.399,-1.3988,-1.3984,-1.4012,-1.4012,-1.4011,-1.399,0,-1.417,-1.4147,-1.4139,-1.4119,-1.4107,-1.4102,-1.409,-1.4079,-1.4072,-1.406,-1.4052,-1.4039,-1.4041,-1.4036,-1.4026,-1.4017,-1.4006,-1.4019,-1.3999,-1.3999,-1.4001,-1.3981,-1.3979,-1.396,-1.3987,-1.3987,-1.3986,0,-1.4153,-1.414,-1.4119,-1.4102,-1.4097,-1.4086,-1.4071,-1.406,-1.4046,-1.4041,-1.4031,-1.4027,-1.4011,-1.4017,-1.3994,-1.4003,-1.3994,-1.3988,-1.3988,-1.3985,-1.3991,-1.3976,-1.3954,-1.395,-1.3982,-1.3983,-1.3983,0,-1.4148,-1.4126,-1.4109,-1.4102,-1.4083,-1.4075,-1.4067,-1.4054,-1.4044,-1.4031,-1.4024,-1.4009,-1.4,-1.3988,-1.3979,-1.3985,-1.3956,-1.3962,-1.3951,-1.3951,-1.3944,-1.3945,-1.3919,-1.3941,-1.3941,-1.3941,-1.3942,0,-1.4135,-1.4121,-1.4106,-1.4096,-1.4079,-1.4071,-1.4055,-1.4046,-1.4033,-1.402,-1.4015,-1.4003,-1.3993,-1.3978,-1.3972,-1.3952,-1.3949,-1.3943,-1.3942,-1.3943,-1.3943,-1.3937,-1.3937,-1.3941,-1.3941,-1.3941,-1.3941,0,-1.4127,-1.4117,-1.4097,-1.408,-1.4075,-1.4064,-1.4048,-1.4037,-1.4028,-1.4012,-1.4007,-1.3994,-1.3976,-1.3966,-1.3945,-1.394,-1.3918,-1.3918,-1.3922,-1.3921,-1.3909,-1.391,-1.3877,-1.3871,-1.3899,-1.3899,-1.3899,0,-1.4119,-1.4108,-1.4088,-1.4078,-1.4069,-1.4055,-1.4044,-1.4034,-1.4023,-1.4005,-1.3995,-1.3977,-1.3963,-1.3935,-1.3923,-1.3905,-1.3903,-1.3893,-1.3901,-1.3901,-1.3901,-1.3901,-1.3898,-1.3891,-1.3891,-1.3891,-1.3891,0,-1.4104,-1.4099,-1.4084,-1.4066,-1.4054,-1.404,-1.4026,-1.4018,-1.4005,-1.3993,-1.3974,-1.3963,-1.3939,-1.392,-1.3902,-1.3892,-1.3888,-1.3888,-1.3884,-1.3885,-1.3887,-1.3884,-1.3917,-1.3889,-1.3889,-1.3889,-1.389,-1.389,-1.4095,-1.4084,-1.4067,-1.405,-1.4037,-1.4024,-1.4011,-1.4,-1.3984,-1.3964,-1.3959,-1.3938,-1.3922,-1.3896,-1.3885,-1.3869,-1.387,-1.3865,-1.3864,-1.3862,-1.386,-1.3891,-1.3865,-1.3865,-1.3866,-1.3866,-1.3866,0,-1.4079,-1.4067,-1.4051,-1.403,-1.4016,-1.4013,-1.3996,-1.3984,-1.3966,-1.3951,-1.3935,-1.3912,-1.3893,-1.3879,-1.3859,-1.3848,-1.3845,-1.3843,-1.3843,-1.384,-1.3861,-1.3866,-1.3845,-1.3845,-1.3845,-1.3845,-1.3845,-1.3845,-1.4068,-1.4048,-1.404,-1.4013,-1.4001,-1.3981,-1.3971,-1.3957,-1.3944,-1.3918,-1.3902,-1.3892,-1.3876,-1.3854,-1.3836,-1.3832,-1.3824,-1.3821,-1.3817,-1.3837,-1.3839,-1.3841,-1.3845,-1.382,-1.382,-1.3796,-1.3796,-1.3796]}]]